This is the latest recevied weather packets stored in our database for station/object KK7KRZ. If no packets are shown the sender has not sent any weather packets the latest 10 day(s).
| Time | Temp. | Humidity | Pressure | Rain* | Wind** | Luminosity | Snow |
|---|---|---|---|---|---|---|---|
| 1776991843 | 13.89° C | 60% | 1020.2 hPa | 0 mm | - | 87 W/m² | - |
| 1776991541 | 14.44° C | 62% | 1020.6 hPa | 0 mm | - | 81 W/m² | - |
| 1776991236 | 14.44° C | 60% | 1020.6 hPa | 0 mm | - | 86 W/m² | - |
| 1776990932 | 14.44° C | 61% | 1020.7 hPa | 0 mm | - | 88 W/m² | - |
| 1776990629 | 14.44° C | 57% | 1020.5 hPa | 0 mm | - | 93 W/m² | - |
| 1776990327 | 14.44° C | 58% | 1020.7 hPa | 0 mm | - | 107 W/m² | - |
| 1776990022 | 14.44° C | 59% | 1020.6 hPa | 0 mm | - | 123 W/m² | - |
| 1776989717 | 14.44° C | 57% | 1020.7 hPa | 0 mm | - | 129 W/m² | - |
| 1776989413 | 14.44° C | 58% | 1020.9 hPa | 0 mm | - | 127 W/m² | - |
| 1776989110 | 15° C | 59% | 1020.8 hPa | 0 mm | - | 129 W/m² | - |
| 1776988807 | 15° C | 57% | 1020.9 hPa | 0 mm | - | 122 W/m² | - |
| 1776988505 | 15° C | 62% | 1021.1 hPa | 0 mm | - | 129 W/m² | - |
| 1776988200 | 14.44° C | 61% | 1021.2 hPa | 0 mm | - | 139 W/m² | - |
| 1776987896 | 14.44° C | 60% | 1021.1 hPa | 0 mm | - | 141 W/m² | - |
| 1776987593 | 13.89° C | 60% | 1021.4 hPa | 0 mm | - | 147 W/m² | - |
| 1776987291 | 14.44° C | 59% | 1021.3 hPa | 0 mm | - | 157 W/m² | - |
| 1776986987 | 14.44° C | 59% | 1021.5 hPa | 0 mm | - | 159 W/m² | - |
| 1776986682 | 14.44° C | 60% | 1021.5 hPa | 0 mm | - | 154 W/m² | - |
| 1776986379 | 13.89° C | 61% | 1021.2 hPa | 0 mm | - | 154 W/m² | - |
| 1776986076 | 14.44° C | 60% | 1021.4 hPa | 0 mm | - | 173 W/m² | - |
| 1776985772 | 14.44° C | 62% | 1021.3 hPa | 0 mm | - | 177 W/m² | - |
| 1776985469 | 13.89° C | 60% | 1021.6 hPa | 0 mm | - | 167 W/m² | - |
| 1776985165 | 13.89° C | 61% | 1021.7 hPa | 0 mm | - | 169 W/m² | - |
| 1776984861 | 13.89° C | 62% | 1021.8 hPa | 0 mm | - | 173 W/m² | - |
| 1776984558 | 14.44° C | 59% | 1021.5 hPa | 0 mm | - | 171 W/m² | - |
* Rain latest hour (hover to see other rain measurements)
** Current wind speed in m/s (hover to see current wind gust speed)